CAPE
0 0 0 0 0 0 1 0 0 0 0 0 0 0 0 0 0 0 0 0 0 0 0 0 0 0 0 0 1 1 0 0 3 1 0 0 1 3 4 4 3 1 0 0
0 0 0 0 0 0 0 0 0 0 0 0 0 0 0 0 0 0 0 0 0 0 0 0 0 0 0 0 1 0 1 1 1 0 0 0 1 2 2 3 3 0 0 0
0 0 0 0 0 0 0 0 0 0 2 4 0 0 0 0 0 0 0 0 0 0 0 0 0 0 0 0 0 0 0 1 1 1 0 0 0 1 1 1 1 1 0 0
0 0 0 0 0 0 0 0 0 0 0 0 0 0 0 0 0 0 0 0 0 0 0 0 0 0 0 5 2 0 0 0 0 0 1 0 0 0 1 1 1 0 0 0
0 0 0 0 0 0 0 0 0 0 0 0 0 0 0 0 0 0 0 0 0 0 0 0 0 0 0 0 1 5 3 0 0 0 0 1 1 0 0 1 1 2 0 0
2 1 0 0 0 0 0 0 0 0 0 0 0 0 0 0 0 0 0 0 0 0 0 0 0 0 0 0 0 0 0 0 0 0 0 1 0 0 0 0 0 1 0 0
0 0 0 0 1 0 0 0 11 4 0 0 0 1 0 0 0 0 0 0 0 0 0 0 0 0 0 0 0 0 0 0 0 0 0 0 0 0 0 0 0 0 0 0
0 0 0 0 0 0 0 0 2 4 0 0 0 0 0 0 0 0 0 0 0 0 0 0 0 0 0 0 0 0 0 0 0 0 0 0 0 0 0 0 0 0 0 0
0 0 0 0 0 0 0 0 0 1 0 0 0 0 0 0 0 0 0 0 0 0 0 0 0 0 0 0 0 0 0 0 0 0 0 0 0 0 0 0 0 0 0 0
0 0 0 0 0 0 0 0 0 0 0 0 0 0 0 0 0 0 0 0 0 0 0 0 0 0 0 0 0 0 0 0 0 0 0 0 0 0 0 0 1 0 0 0
0 0 0 0 0 0 0 0 0 0 0 0 0 0 0 0 0 0 0 0 0 0 0 0 0 0 0 0 0 0 0 0 0 0 0 0 0 0 0 0 0 0 0 0
0 0 0 0 0 0 0 0 0 0 0 0 3 0 0 0 0 0 0 0 0 0 0 0 0 0 0 0 0 0 0 0 0 0 0 0 0 0 0 0 0 0 0 0
0 0 0 0 0 0 0 0 0 0 0 0 0 0 0 0 0 0 0 0 0 0 0 0 0 0 0 0 0 0 0 0 0 0 0 0 0 0 0 0 0 0 0 0
0 0 0 0 0 0 0 0 0 0 0 0 0 0 0 0 0 0 0 0 0 0 0 0 0 0 0 0 0 0 0 0 0 0 0 0 0 0 0 0 0 0 0 0
0 0 1 0 2 0 0 0 0 0 0 0 0 0 0 0 0 0 0 0 0 0 0 0 0 0 0 0 0 0 0 0 0 0 0 0 0 0 0 0 0 0 0 0
0 0 0 0 0 0 0 0 0 0 0 0 0 0 0 0 0 0 0 0 0 0 0 0 0 0 0 0 0 0 0 0 0 0 0 0 0 0 0 0 0 0 0 0
0 0 0 0 0 0 0 0 2 0 0 0 0 0 0 0 0 0 0 0 0 0 0 0 0 0 0 0 0 0 0 0 0 0 0 0 0 0 0 0 0 0 0 0
0 0 0 0 0 0 0 0 0 0 0 0 0 0 0 0 0 0 3 10 6 10 4 0 0 0 0 0 0 0 0 0 0 0 0 0 0 0 0 0 0 0 0 0
0 1 4 15 12 7 9 9 5 0 0 0 0 0 0 0 0 0 0 3 6 11 8 0 0 0 0 0 0 0 0 0 0 0 0 0 0 0 0 0 0 0 0 0
0 0 0 0 0 0 0 0 0 0 1 0 0 0 0 0 0 0 0 1 5 6 0 0 4 0 2 0 0 0 0 0 0 0 0 0 0 0 0 0 0 0 0 0
0 0 0 1 3 0 0 0 0 0 0 0 0 0 0 0 0 0 0 0 0 0 0 0 0 0 0 0 0 0 0 0 0 0 0 0 0 0 0 0 0 0 0 0
5 9 8 5 3 6 4 2 3 0 0 0 0 0 0 0 0 0 0 0 0 0 0 0 0 0 0 0 0 0 0 0 0 0 0 0 0 0 0 0 0 0 0 0
3 7 6 6 4 2 2 2 0 0 0 0 0 0 0 0 0 0 0 0 0 0 0 0 0 0 0 0 0 0 0 0 0 0 0 0 0 0 0 0 0 0 0 0
1 2 2 4 2 2 1 0 0 2 4 0 0 0 0 0 0 0 0 0 0 0 0 0 0 0 0 0 0 0 0 0 0 0 0 0 0 0 0 0 0 0 0 0
5 5 0 0 1 1 0 0 0 0 0 0 0 2 3 0 0 0 0 0 0 0 0 0 0 0 0 0 0 0 0 0 0 0 0 0 0 0 0 0 3 4 2 3
1 1 3 2 2 0 0 3 3 0 0 0 0 0 0 0 0 0 0 3 0 0 0 0 0 0 0 0 0 0 0 0 0 0 0 0 0 1 1 2 3 4 6 7
0 0 0 0 0 0 0 0 0 0 1 1 0 0 0 0 0 0 0 0 0 0 0 0 0 0 0 0 0 0 0 0 0 0 0 0 0 0 2 3 5 5 4 3
CIN
-0 -0 -0 -0 -0 -0 -0 -0 -0 -0 -0 -0 -0 -0 -0 -0 -0 -0 -0 -0 -0 -0 -0 -0 -0 -0 -0 -0 -0 -0 -0 -0 -14 -0 -0 -0 -0 -0 -0 -0 -0 -0 -0 -0
-0 -0 -0 -0 -0 -0 -0 -0 -0 -0 -0 -0 -0 -0 -0 -0 -0 -0 -0 -0 -0 -0 -0 -0 -0 -0 -0 -0 -0 -0 -0 -0 -0 -0 -0 -0 -0 -0 -0 -0 -0 -0 -0 -0
-0 -0 -0 -0 -0 -0 -0 -0 -0 -0 -0 -0 -0 -0 -0 -0 -0 -0 -0 -0 -0 -0 -0 -0 -0 -0 -0 -0 -0 -0 -0 -0 -0 -0 -0 -0 -0 -0 -0 -0 -0 -0 -0 -0
-0 -0 -0 -0 -0 -0 -0 -0 -0 -0 -0 -0 -0 -0 -0 -0 -0 -0 -0 -0 -0 -0 -0 -0 -0 -0 -10 -9 -11 -11 -0 -0 -0 -0 -0 -0 -0 -0 -0 -0 -0 -0 -0 -0
-0 -0 -0 -0 -0 -0 -0 -0 -0 -0 -0 -0 -0 -0 -0 -0 -0 -0 -0 -0 -0 -0 -0 -0 -0 -0 -0 -0 -0 -9 -4 -7 -0 -0 -0 -0 -0 -0 -0 -0 -0 -0 -0 -0
-7 -4 -0 -0 -0 -0 -0 -0 -0 -0 -0 -0 -0 -0 -0 -0 -0 -0 -0 -0 -0 -0 -0 -0 -0 -0 -0 -0 -0 -0 -1 -10 -0 -0 -0 -0 -0 -0 -0 -0 -0 -0 -0 -0
-0 -4 -0 -0 -3 -0 -0 -0 -32 -48 -0 -0 -0 -0 -15 -0 -0 -0 -0 -0 -0 -0 -0 -0 -0 -0 -0 -0 -0 -0 -0 -0 -0 -0 -0 -0 -0 -0 -0 -0 -0 -0 -0 -0
-0 -0 -4 -0 -0 -0 -0 -0 -4 -49 -0 -0 -0 -0 -0 -0 -0 -0 -0 -0 -0 -0 -0 -0 -0 -0 -0 -0 -0 -0 -0 -0 -0 -0 -0 -0 -0 -0 -0 -0 -0 -0 -0 -0
-0 -0 -0 -1 -0 -0 -0 -0 -0 -1 -0 -0 -0 -0 -0 -0 -0 -0 -0 -0 -0 -0 -0 -0 -0 -0 -0 -0 -0 -0 -0 -0 -0 -0 -0 -0 -0 -0 -0 -0 -0 -0 -0 -0
-0 -0 -0 -0 -0 -0 -0 -0 -0 -0 -0 -0 -0 -0 -0 -0 -0 -0 -0 -0 -0 -0 -0 -0 -0 -0 -0 -0 -0 -0 -0 -0 -0 -0 -10 -0 -0 -0 -0 -0 -0 -0 -0 -0
-0 -0 -0 -0 -0 -0 -0 -0 -0 -0 -0 -0 -0 -0 -0 -0 -0 -0 -0 -0 -0 -0 -0 -0 -0 -0 -0 -0 -0 -0 -0 -0 -0 -0 -0 -0 -0 -0 -0 -0 -0 -0 -0 -0
-0 -0 -0 -0 -0 -0 -0 -0 -0 -0 -0 -0 -0 -0 -0 -0 -0 -0 -0 -0 -0 -0 -0 -0 -0 -0 -0 -0 -0 -0 -0 -0 -0 -0 -0 -0 -0 -0 -0 -0 -0 -0 -0 -0
-0 -0 -0 -0 -0 -0 -0 -0 -0 -0 -0 -0 -0 -0 -0 -0 -0 -0 -0 -0 -0 -0 -0 -0 -0 -0 -0 -0 -0 -0 -0 -0 -0 -0 -0 -0 -0 -0 -0 -0 -0 -1 -0 -0
-0 -0 -0 -0 -0 -0 -0 -0 -0 -0 -0 -0 -0 -0 -0 -0 -0 -0 -0 -0 -0 -0 -0 -0 -0 -0 -0 -0 -0 -0 -0 -0 -0 -0 -0 -0 -0 -0 -0 -0 -0 -0 -0 -0
-0 -0 -19 -8 -29 -0 -0 -0 -0 -0 -0 -0 -0 -0 -0 -0 -0 -0 -0 -0 -0 -0 -0 -0 -0 -0 -0 -0 -0 -0 -0 -0 -0 -0 -0 -0 -0 -0 -0 -0 -0 -0 -0 -0
-0 -0 -0 -0 -0 -0 -0 -0 -0 -0 -0 -0 -0 -0 -0 -0 -0 -0 -0 -0 -0 -0 -0 -0 -0 -0 -0 -0 -0 -0 -0 -0 -0 -0 -0 -0 -0 -0 -0 -0 -0 -0 -0 -0
-0 -0 -0 -0 -0 -0 -0 -0 -34 -0 -0 -0 -0 -13 -0 -0 -0 -0 -0 -0 -0 -0 -0 -0 -0 -0 -0 -0 -0 -0 -0 -0 -0 -0 -0 -0 -0 -0 -0 -0 -0 -0 -0 -0
-8 -1 -0 -0 -0 -0 -0 -0 -0 -0 -0 -0 -0 -0 -0 -0 -0 -0 -7 -9 -19 -33 -40 -0 -0 -0 -0 -0 -0 -0 -0 -0 -0 -0 -0 -0 -0 -0 -0 -0 -0 -0 -0 -0
-0 -20 -22 -9 -8 -9 -20 -25 -26 -0 -0 -0 -0 -0 -13 -0 -0 -0 -0 -14 -27 -27 -45 -0 -0 -27 -0 -0 -0 -0 -0 -0 -0 -0 -0 -0 -0 -0 -0 -0 -0 -0 -0 -0
-0 -0 -0 -0 -0 -0 -2 -1 -0 -4 -8 -0 -0 -0 -0 -0 -0 -0 -0 -13 -57 -48 -1 -0 -38 -10 -65 -0 -0 -0 -0 -0 -0 -0 -0 -0 -0 -0 -0 -0 -0 -0 -0 -0
-0 -0 -0 -0 -0 -1 -0 -0 -0 -0 -0 -0 -0 -0 -0 -0 -0 -0 -0 -0 -0 -0 -0 -0 -0 -0 -0 -0 -0 -0 -0 -0 -0 -0 -0 -0 -0 -0 -0 -0 -0 -0 -0 -0
-3 -0 -0 -1 -0 -0 -1 -0 -1 -0 -1 -0 -0 -0 -0 -0 -0 -0 -0 -0 -0 -0 -0 -0 -0 -0 -0 -0 -0 -0 -0 -0 -0 -0 -0 -0 -0 -0 -0 -0 -0 -0 -0 -0
-1 -0 -0 -0 -0 -1 -0 -0 -0 -0 -0 -0 -0 -0 -0 -0 -0 -0 -0 -0 -0 -0 -0 -0 -0 -0 -0 -0 -0 -0 -0 -0 -0 -0 -0 -0 -0 -0 -0 -0 -0 -0 -0 -0
-1 -1 -1 -0 -0 -0 -0 -0 -0 -2 -3 -3 -0 -0 -0 -0 -0 -0 -0 -0 -0 -0 -0 -0 -0 -0 -0 -0 -0 -0 -0 -0 -0 -0 -0 -0 -0 -0 -0 -0 -0 -0 -0 -0
-0 -0 -0 -0 -0 -0 -0 -0 -0 -0 -0 -0 -1 -7 -7 -0 -0 -0 -0 -0 -0 -0 -0 -0 -0 -0 -0 -0 -0 -0 -0 -0 -0 -0 -0 -0 -0 -0 -0 -4 -25 -19 -19 -13
-0 -0 -0 -0 -0 -0 -0 -0 -0 -0 -0 -0 -0 -0 -0 -0 -0 -0 -0 -28 -10 -0 -0 -0 -0 -0 -0 -0 -0 -0 -0 -0 -0 -0 -0 -0 -0 -13 -20 -14 -15 -14 -14 -14
-0 -0 -1 -1 -0 -1 -0 -0 -0 -0 -0 -1 -0 -0 -0 -0 -0 -0 -0 -35 -0 -10 -11 -0 -0 -0 -0 -0 -0 -0 -0 -0 -0 -0 -0 -0 -0 -7 -21 -19 -15 -11 -11 -12
Wind_Speed
31 35 38 37 34 31 27 29 30 31 27 23 24 19 15 12 11 10 10 11 13 14 14 12 10 13 13 14 15 16 17 18 19 22 15 13 12 20 20 16 14 12 11 7
36 33 30 34 37 34 32 30 29 28 24 22 22 15 16 14 12 10 9 11 12 14 14 12 12 10 10 13 13 14 14 14 15 14 11 8 9 10 10 12 13 11 10 9
41 36 38 34 25 26 25 24 26 26 23 16 15 14 15 14 11 11 9 10 11 13 15 14 10 7 8 7 7 8 10 13 15 15 15 14 13 13 13 13 11 11 9 8
41 37 40 27 26 24 26 25 29 26 21 22 15 9 8 10 11 11 10 10 10 12 13 14 11 8 6 5 7 8 8 9 11 13 14 14 14 15 14 12 13 11 11 10
37 40 40 40 29 27 27 29 26 34 26 19 21 16 10 8 10 13 13 13 11 10 12 13 11 10 9 9 9 9 9 9 11 11 11 10 10 10 10 11 12 12 11 10
29 35 38 27 23 24 27 35 28 30 32 27 21 24 19 13 12 12 13 14 14 11 12 13 13 10 11 12 13 14 13 9 9 9 10 10 10 9 9 8 9 10 12 13
34 33 31 27 29 22 36 34 27 24 26 26 24 20 20 16 16 16 15 15 15 12 13 14 15 11 11 13 14 16 16 13 10 10 11 11 11 12 11 11 11 12 14 14
29 34 38 29 29 29 31 31 25 23 19 18 17 19 23 21 19 17 21 19 17 17 15 16 16 14 14 16 17 17 17 16 14 11 12 12 13 14 14 15 14 14 14 15
26 33 33 28 29 27 29 27 27 25 21 20 20 20 20 23 23 21 19 24 22 19 18 18 19 18 18 17 17 18 19 19 18 15 14 13 13 14 15 15 16 16 16 16
36 31 39 33 26 27 28 29 30 26 27 26 24 22 24 25 25 28 27 22 26 29 24 23 22 21 21 21 20 20 20 21 20 18 17 17 17 17 17 18 19 20 19 20
46 44 40 36 36 34 33 31 30 30 29 30 31 32 31 26 27 27 28 30 27 26 27 27 27 27 25 24 24 23 23 22 23 21 20 21 22 22 21 22 21 21 22 22
42 38 41 44 41 38 36 36 35 34 34 32 29 34 36 36 29 30 30 30 33 32 31 31 31 30 30 30 28 27 27 27 26 25 25 25 25 26 25 25 24 24 24 24
37 35 37 39 39 39 39 40 39 37 34 37 34 33 34 33 31 31 33 34 34 35 36 35 32 33 33 33 34 33 32 32 30 29 29 30 30 29 30 28 28 27 27 28
29 31 33 34 37 37 37 38 41 41 38 37 36 34 34 36 35 34 34 36 38 38 39 38 38 37 34 34 34 34 33 32 33 33 33 33 32 33 33 33 32 30 27 28
27 29 31 31 28 30 32 35 36 35 36 38 39 38 37 37 38 38 36 36 36 37 39 38 37 36 34 33 35 35 34 32 32 33 31 31 32 33 30 30 31 32 31 30
26 26 25 30 29 31 34 35 35 37 38 38 39 39 39 39 42 41 39 38 39 38 39 39 40 38 35 35 36 36 34 33 34 35 37 37 36 36 35 34 35 37 37 36
31 33 33 35 36 35 34 35 35 35 36 39 39 40 42 43 44 45 41 39 40 40 38 37 40 36 33 34 35 35 35 36 36 36 35 35 35 37 39 39 38 38 37 33
35 36 38 37 39 42 41 39 40 41 41 40 39 39 41 43 44 44 44 40 41 42 40 39 37 34 34 35 36 37 37 38 39 39 40 39 39 39 39 39 40 39 38 37
27 37 43 41 42 44 46 48 45 45 45 46 46 45 42 39 40 44 46 45 43 43 42 39 38 36 35 35 32 31 31 32 33 34 35 36 37 37 38 39 40 40 40 41
21 21 21 23 23 33 47 48 47 48 48 46 47 48 47 43 39 38 39 43 43 41 37 35 34 32 31 30 31 33 36 37 38 39 39 40 42 43 44 45 45 45 46 45
22 27 30 28 29 29 28 41 53 54 52 49 47 48 47 45 40 37 36 36 36 34 34 35 36 37 37 36 36 37 38 39 40 39 39 40 42 43 44 44 45 46 45 44
23 24 21 20 20 21 21 22 23 35 49 46 46 46 44 44 44 40 35 34 34 32 33 34 36 38 39 40 41 42 42 42 43 43 44 44 44 45 45 45 45 45 45 44
22 19 18 16 15 15 15 15 16 20 25 34 45 44 40 39 38 33 34 34 35 36 36 37 39 39 39 39 39 40 41 42 43 43 44 44 45 45 45 44 43 43 42 42
19 17 16 14 13 11 11 10 10 12 15 21 26 35 39 43 42 40 37 37 29 33 37 37 38 39 39 39 39 41 42 42 43 44 45 46 47 46 46 44 44 42 42 41
17 16 14 13 12 9 9 8 8 9 11 14 19 22 25 32 37 41 38 33 30 21 31 35 36 38 37 37 39 41 42 42 44 44 44 45 46 46 46 44 44 44 43 42
16 14 13 12 10 9 8 7 7 6 7 12 16 19 22 26 31 36 38 33 29 29 32 33 34 39 30 35 38 39 41 42 43 43 44 44 44 44 43 43 43 43 42 42
14 13 13 12 9 8 8 10 13 15 14 14 16 18 19 21 24 26 29 33 34 33 34 35 35 35 36 40 40 47 45 42 41 41 39 39 39 39 40 40 40 40 40 39
Wind_Direction
276 270 266 265 269 272 262 259 251 263 259 255 254 246 243 244 252 255 266 280 285 286 287 276 273 273 271 275 279 278 273 269 264 260 261 262 266 254 226 202 244 254 261 253
273 273 270 272 267 266 261 263 262 265 259 260 264 244 241 245 248 254 264 279 293 290 293 295 285 269 273 277 280 281 278 276 279 281 286 276 272 262 259 265 261 258 256 256
266 277 271 264 270 268 269 266 262 260 264 262 267 258 246 242 251 256 269 278 289 299 298 301 305 296 280 288 291 287 290 289 284 283 279 277 274 270 268 265 260 255 247 253
268 274 255 257 283 269 270 268 259 264 271 264 265 278 272 258 254 264 275 286 290 293 306 313 315 330 340 314 316 320 320 312 299 290 285 282 277 275 273 270 262 252 252 256
268 263 264 269 277 270 269 266 269 255 266 277 261 263 271 292 273 267 277 291 295 297 300 312 315 322 329 332 326 326 319 319 320 313 295 294 291 287 284 273 269 260 258 257
276 264 256 278 291 289 279 267 271 261 256 264 271 244 253 275 279 281 279 281 287 298 300 305 313 314 312 310 313 315 313 317 328 329 320 299 297 298 294 286 276 268 264 267
271 268 264 294 307 289 261 266 281 274 265 262 259 255 267 277 277 277 277 277 286 288 290 295 303 308 305 306 306 309 315 310 310 320 327 324 307 301 298 294 289 281 276 274
277 264 258 305 297 284 284 288 283 279 274 268 270 269 265 276 282 276 274 282 284 282 282 289 294 298 298 296 302 303 309 314 310 307 315 319 319 305 298 294 290 287 283 282
284 269 288 300 301 303 300 296 292 282 270 270 270 274 274 272 274 280 281 276 283 286 281 283 288 291 288 293 298 300 301 303 306 303 301 306 311 312 304 297 293 288 285 283
285 278 280 294 304 306 302 294 290 288 283 280 274 270 270 269 273 272 276 277 272 275 283 279 287 290 291 291 295 294 295 295 299 300 292 293 299 302 301 299 294 290 287 284
278 279 283 282 290 293 292 293 291 289 285 282 279 277 271 272 274 275 274 273 279 276 276 280 283 284 290 293 293 290 291 291 293 293 293 292 289 292 293 293 294 293 290 288
278 286 282 278 279 284 284 284 284 288 286 290 282 275 281 267 269 271 275 277 276 277 278 277 277 282 287 288 292 292 286 286 290 288 288 289 288 288 290 292 292 292 294 294
290 293 287 283 280 282 280 279 279 282 285 284 288 287 282 276 277 274 274 275 277 278 276 277 277 277 280 284 286 286 282 283 284 285 286 286 286 285 285 289 291 291 293 293
312 308 296 293 286 286 286 284 278 278 279 282 282 286 285 280 282 277 275 275 277 277 279 275 274 273 276 279 280 279 280 281 282 283 284 283 283 284 285 284 285 291 295 296
319 317 302 305 307 299 299 294 289 287 285 281 279 280 280 281 282 278 280 280 281 279 276 276 275 273 273 274 275 276 278 279 281 282 285 287 288 285 284 284 285 289 295 296
328 324 319 311 311 308 304 300 293 288 287 286 284 283 281 280 278 282 282 280 279 280 279 276 273 274 273 271 272 273 276 279 280 281 281 282 283 282 284 286 288 290 291 292
332 322 320 312 307 306 303 301 297 294 291 287 286 284 281 281 279 278 280 278 277 278 280 279 277 278 274 272 273 274 277 278 279 279 279 281 282 283 284 285 287 288 289 293
328 321 316 313 307 300 298 299 296 291 289 291 291 287 285 283 278 278 276 276 276 277 277 280 277 275 275 275 274 275 276 277 277 276 276 278 279 282 284 286 287 288 289 290
344 329 316 317 307 301 295 288 290 290 285 284 283 283 285 286 285 279 275 274 273 272 274 276 275 275 276 278 276 276 278 280 281 281 281 281 282 284 285 287 288 288 288 288
322 320 311 290 283 309 297 291 292 289 286 286 283 279 278 278 282 284 280 272 271 272 275 275 275 274 275 274 277 278 279 279 280 281 281 281 282 283 284 284 286 286 286 286
305 296 289 284 276 268 262 296 284 282 282 281 279 277 274 275 277 280 280 278 276 275 273 273 272 273 273 274 275 277 278 279 281 281 281 282 283 283 284 284 284 285 285 286
305 301 297 294 288 277 267 263 258 251 270 276 279 275 273 272 273 274 274 276 279 278 277 274 273 273 273 273 274 275 276 277 278 279 280 281 282 284 284 284 284 284 284 284
308 307 305 303 301 293 281 267 256 245 239 241 258 269 275 275 272 272 273 276 278 277 278 276 274 275 274 274 275 275 276 276 277 278 279 281 282 284 284 284 284 284 284 285
313 315 315 313 310 301 294 281 259 245 234 231 229 233 234 262 264 267 275 277 281 281 278 277 276 275 274 274 275 275 276 277 278 279 280 281 282 282 283 284 284 284 285 285
326 324 322 322 317 314 301 288 268 248 237 228 223 220 219 226 231 242 232 227 227 246 282 280 277 275 276 276 277 277 277 279 280 280 281 281 281 281 281 282 282 283 284 284
324 328 329 322 315 308 300 290 274 258 238 231 228 225 226 228 234 240 244 233 224 222 223 226 228 232 255 280 280 280 280 281 281 280 281 281 281 281 281 282 282 282 282 283
328 324 329 325 338 329 313 285 270 261 251 242 238 233 229 230 231 232 233 233 234 233 230 229 229 230 232 239 250 261 278 279 279 280 281 282 282 282 282 282 282 282 283 283